Location: Woodstock
(35.2731°N, 89.9823°W)
Time: 17:03:17
(UTC+00:00)

Vanguard 3 - Pass Details

Date: 26 May 2025
Orbit: 508 x 3215 km, 33.3° (Epoch: 14 June)

Event Time Altitude Azimuth Distance (km) Brightness Sun altitude
Rises 07:26:27 0° 239° (WSW) 6,270 - -29.7°
Reaches altitude 10° 07:31:20 10° 236° (SW) 4,852 - -29.3°
Exits shadow 07:42:06 51° 189° (S) 1,893 8.5 -28.3°
Maximum altitude 07:43:22 54° 164° (SSE) 1,738 8.4 -28.2°
Drops below altitude 10° 07:50:10 10° 88° (E) 2,818 10.3 -27.5°
Sets 07:52:17 0° 83° (E) 3,524 10.9 -27.3°
